TimeEDT,TemperatureF,Dew PointF,Humidity,Sea Level PressureIn,VisibilityMPH,Wind Direction,Wind SpeedMPH,Gust SpeedMPH,PrecipitationIn,Events,Conditions,WindDirDegrees,DateUTC
12:15 AM,64.8,59.4,83,30.17,10.0,Calm,Calm,-,N/A,,Scattered Clouds,0,2012-10-04 04:15:00
12:35 AM,63.9,59.5,86,30.17,10.0,Calm,Calm,-,N/A,,Mostly Cloudy,0,2012-10-04 04:35:00
12:55 AM,63.0,60.1,90,30.16,10.0,Calm,Calm,-,N/A,,Scattered Clouds,0,2012-10-04 04:55:00
1:15 AM,63.0,60.8,93,30.15,10.0,Calm,Calm,-,N/A,,Clear,0,2012-10-04 05:15:00
1:35 AM,63.3,60.3,90,30.16,10.0,Calm,Calm,-,N/A,,Clear,0,2012-10-04 05:35:00
1:55 AM,63.5,60.4,90,30.16,10.0,Calm,Calm,-,N/A,,Scattered Clouds,0,2012-10-04 05:55:00
2:15 AM,63.0,60.3,91,30.17,10.0,Calm,Calm,-,N/A,,Mostly Cloudy,0,2012-10-04 06:15:00
2:35 AM,62.6,60.3,92,30.16,10.0,Calm,Calm,-,N/A,,Overcast,0,2012-10-04 06:35:00
2:55 AM,62.1,60.3,94,30.16,7.0,Calm,Calm,-,N/A,,Mostly Cloudy,0,2012-10-04 06:55:00
3:15 AM,62.4,60.8,94,30.15,10.0,Calm,Calm,-,N/A,,Mostly Cloudy,0,2012-10-04 07:15:00
3:35 AM,62.6,60.4,93,30.15,10.0,Calm,Calm,-,N/A,,Mostly Cloudy,0,2012-10-04 07:35:00
3:55 AM,62.6,60.3,92,30.16,10.0,Calm,Calm,-,N/A,,Overcast,0,2012-10-04 07:55:00
4:15 AM,62.8,60.8,93,30.16,10.0,Calm,Calm,-,N/A,,Overcast,0,2012-10-04 08:15:00
4:35 AM,62.8,60.3,91,30.16,10.0,Calm,Calm,-,N/A,,Overcast,0,2012-10-04 08:35:00
4:55 AM,61.9,60.3,94,30.15,5.0,Calm,Calm,-,N/A,,Light Drizzle,0,2012-10-04 08:55:00
5:15 AM,61.7,60.1,94,30.16,4.0,Calm,Calm,-,N/A,,Overcast,0,2012-10-04 09:15:00
5:35 AM,62.1,60.8,96,30.17,7.0,Calm,Calm,-,N/A,Rain,Light Rain,0,2012-10-04 09:35:00
5:53 AM,62.6,60.8,94,30.16,7.0,Calm,Calm,-,N/A,,Light Drizzle,0,2012-10-04 09:53:00
6:53 AM,62.6,60.8,94,30.15,7.0,Calm,Calm,-,N/A,,Light Drizzle,0,2012-10-04 10:53:00
7:53 AM,60.8,60.8,100,30.18,5.0,West,4.6,-,N/A,,Mostly Cloudy,280,2012-10-04 11:53:00
8:53 AM,62.6,60.8,94,30.18,6.0,Calm,Calm,-,N/A,,Scattered Clouds,0,2012-10-04 12:53:00
9:53 AM,64.4,60.8,88,30.19,7.0,Calm,Calm,-,N/A,,Scattered Clouds,0,2012-10-04 13:53:00
10:53 AM,66.2,60.8,83,30.19,10.0,SW,5.8,-,N/A,,Mostly Cloudy,230,2012-10-04 14:53:00
11:53 AM,68.0,57.2,68,30.18,10.0,WSW,4.6,-,N/A,,Mostly Cloudy,250,2012-10-04 15:53:00
12:53 PM,69.8,53.6,56,30.17,10.0,West,9.2,-,N/A,,Mostly Cloudy,280,2012-10-04 16:53:00
1:53 PM,73.4,51.8,47,30.14,10.0,West,11.5,-,N/A,,Scattered Clouds,260,2012-10-04 17:53:00
2:53 PM,73.4,51.8,47,30.13,10.0,West,11.5,-,N/A,,Scattered Clouds,260,2012-10-04 18:53:00
3:53 PM,73.4,48.2,41,30.12,10.0,West,13.8,-,N/A,,Scattered Clouds,270,2012-10-04 19:53:00
4:53 PM,71.6,46.4,41,30.12,10.0,West,11.5,-,N/A,,Scattered Clouds,270,2012-10-04 20:53:00
5:53 PM,69.8,48.2,46,30.12,10.0,West,5.8,-,N/A,,Clear,270,2012-10-04 21:53:00
6:53 PM,66.2,48.2,52,30.11,10.0,West,8.1,-,N/A,,Clear,270,2012-10-04 22:53:00
8:53 PM,60.8,48.2,63,30.12,10.0,Calm,Calm,-,N/A,,Scattered Clouds,0,2012-10-05 00:53:00
9:15 PM,60.1,48.6,66,30.13,10.0,SW,3.5,-,N/A,,Clear,220,2012-10-05 01:15:00
9:35 PM,59.0,49.1,70,30.14,10.0,SW,4.6,-,N/A,,Clear,220,2012-10-05 01:35:00
9:55 PM,59.7,48.7,67,30.14,10.0,SW,6.9,-,N/A,,Scattered Clouds,230,2012-10-05 01:55:00
10:15 PM,60.1,48.6,66,30.13,10.0,WSW,8.1,-,N/A,,Clear,250,2012-10-05 02:15:00
10:35 PM,59.0,49.1,70,30.14,10.0,WSW,8.1,-,N/A,,Clear,250,2012-10-05 02:35:00
10:55 PM,57.2,49.1,74,30.14,10.0,WSW,4.6,-,N/A,,Clear,240,2012-10-05 02:55:00
11:15 PM,56.5,49.8,78,30.14,10.0,Calm,Calm,-,N/A,,Clear,0,2012-10-05 03:15:00
11:35 PM,56.8,49.6,77,30.14,10.0,Calm,Calm,-,N/A,,Scattered Clouds,0,2012-10-05 03:35:00
11:55 PM,55.9,49.6,79,30.14,10.0,Calm,Calm,-,N/A,,Scattered Clouds,0,2012-10-05 03:55:00